#timestamp,LO_Frequency,Hit 
1497909615.2,286047014.8,N
1497909635.1,286047015.0,N
1497909636.0,286047015.0,N
1497909655.8,286047014.8,N
1497909675.6,286047014.4,N
1497909695.5,286047016.9,N
1497909715.3,286047014.9,N
1497909735.1,286047017.0,N
1497909755.9,286047015.8,N
1497909775.7,286047015.8,N
1497909795.5,286047018.4,N
1497909815.4,286047017.8,N
1497909835.2,286047019.1,N
1497909855.0,286047020.0,N
1497909855.9,286047020.0,N
1497909875.8,286047019.6,N
1497909895.6,286047018.3,N
1497909915.4,286047014.3,N
1497909935.2,286047014.3,N
1497909955.1,286047016.3,N
1497909956.0,286047016.3,N
1497909975.8,286047018.4,N
1497909995.6,286047015.7,N
1497910015.5,286047017.4,N
1497910035.3,286047017.9,N
1497910055.1,286047019.1,N
1497910075.9,286047023.3,Y
1497910095.7,286047010.0,N
1497910115.5,286047012.0,N
1497910135.4,286047009.9,N
1497910155.2,286047012.3,N
1497910175.0,286047010.7,N
1497910175.9,286047010.7,N
1497910195.8,286047008.2,N
1497910215.6,286047010.7,N
1497910235.4,286047007.8,N
1497910255.2,286047010.4,N
1497910275.1,286047013.5,N
1497910276.0,286047013.5,N
1497910295.8,286047009.6,N
1497910315.6,286047009.6,N
1497910335.5,286047011.7,N
1497910355.3,286047012.3,N
1497910375.1,286047011.7,N
1497910395.9,286047013.9,N
1497910415.7,286047011.8,N
1497910435.5,286047009.4,N
1497910455.3,286047009.6,N
1497910475.2,286047012.0,N
1497910495.0,286047011.7,N
1497910495.9,286047011.7,N
1497910515.7,286047012.0,N
1497910535.6,286047010.3,N
1497910555.4,286047009.7,N
1497910575.2,286047011.7,N
1497910595.1,286047011.5,N
1497910596.0,286047011.5,N
1497910615.8,286047013.2,N
1497910635.6,286047017.2,N
1497910655.5,286047015.0,N
1497910675.3,286047014.2,N
1497910695.1,286047017.0,N
1497910715.8,286047016.1,N
1497910735.7,286047016.1,N
1497910755.5,286047016.5,N
1497910775.3,286047017.2,N
1497910795.2,286047015.5,N
1497910815.9,286047013.9,N
1497910835.7,286047013.4,N
1497910855.6,286047015.2,N
1497910875.4,286047014.2,N
1497910895.2,286047016.3,N
1497910915.1,286047018.4,N
1497910916.0,286047018.4,N
1497910935.8,286047018.3,N
1497910955.6,286047018.5,N
1497910975.5,286047018.9,N
1497910995.3,286047020.3,N
1497911015.1,286047017.7,N
1497911035.8,286047019.5,N
1497911055.7,286047017.3,N
1497911075.5,286047022.0,Y
1497911095.3,286047008.4,N
1497911115.2,286047008.3,N
1497911135.0,286047010.2,N
1497911135.9,286047010.2,N
1497911155.7,286047009.5,N
1497911175.6,286047011.9,N
1497911195.4,286047011.2,N
1497911215.2,286047011.4,N
1497911235.1,286047011.8,N
1497911236.0,286047011.8,N
1497911255.8,286047011.1,N
1497911275.6,286047012.7,N
1497911295.5,286047012.8,N
1497911315.3,286047013.5,N
1497911335.1,286047012.8,N
1497911355.9,286047012.8,N
1497911375.7,286047013.7,N
1497911395.5,286047013.4,N
1497911415.3,286047012.5,N
1497911435.2,286047013.2,N
1497911455.9,286047014.7,N
1497911475.7,286047015.6,N
1497911495.6,286047013.7,N
1497911515.4,286047013.1,N
1497911535.2,286047013.5,N
1497911555.1,286047015.5,N
1497911556.0,286047015.5,N
1497911575.8,286047012.6,N
1497911595.6,286047012.8,N
1497911615.5,286047014.5,N
1497911635.3,286047015.3,N
1497911655.1,286047017.0,N
1497911675.8,286047016.6,N
1497911695.7,286047018.1,N
1497911715.5,286047017.9,N
1497911735.3,286047018.2,N
1497911755.2,286047018.8,N
1497911775.9,286047016.5,N
1497911795.7,286047017.2,N
1497911815.6,286047018.3,N
1497911835.4,286047016.4,N
1497911855.2,286047018.6,N
1497911875.1,286047018.6,N
1497911876.0,286047018.6,N
1497911895.8,286047017.5,N
1497911915.6,286047019.9,N
1497911935.5,286047021.7,Y
1497911955.3,286047009.4,N
1497911975.1,286047008.1,N
1497911995.8,286047010.1,N
1497912015.7,286047010.8,N
1497912035.5,286047012.1,N
1497912055.3,286047010.6,N
1497912075.2,286047008.6,N
1497912095.9,286047008.5,N
1497912115.7,286047006.3,N
1497912135.6,286047008.4,N
1497912155.4,286047008.0,N
1497912175.2,286047007.8,N
1497912195.1,286047006.5,N
1497912196.0,286047006.5,N
1497912215.8,286047008.6,N
1497912235.6,286047008.0,N
1497912255.4,286047012.0,N
1497912275.3,286047009.5,N
1497912295.1,286047010.0,N
1497912315.8,286047011.2,N
1497912335.7,286047011.8,N
1497912355.5,286047011.8,N
1497912375.3,286047011.4,N
1497912395.2,286047013.1,N
1497912415.9,286047012.4,N
1497912435.7,286047012.1,N
1497912455.6,286047014.4,N
1497912475.4,286047014.4,N
1497912495.2,286047014.8,N
1497912515.0,286047012.8,N
1497912515.9,286047012.8,N
1497912535.8,286047013.6,N
1497912555.6,286047013.5,N
1497912575.4,286047013.3,N
1497912595.3,286047015.5,N
1497912615.1,286047012.6,N
1497912635.8,286047015.5,N
1497912655.7,286047013.2,N
1497912675.5,286047016.8,N
1497912695.3,286047012.5,N
1497912715.2,286047014.4,N
1497912735.9,286047016.0,N
1497912755.7,286047016.0,N
1497912775.5,286047016.2,N
1497912795.4,286047018.2,N
1497912815.2,286047016.4,N
1497912835.0,286047016.7,N
1497912835.9,286047016.7,N
1497912855.8,286047018.3,Y
1497912875.6,286047005.5,N
1497912895.4,286047004.7,N
1497912915.3,286047007.5,N
1497912935.1,286047005.5,N
1497912955.8,286047004.7,N
1497912975.7,286047007.3,N
1497912995.5,286047009.0,N
1497913015.3,286047007.1,N
1497913035.2,286047008.8,N
1497913055.9,286047008.5,N
1497913075.7,286047010.2,N
1497913095.5,286047007.9,N
1497913115.4,286047008.9,N
1497913135.2,286047008.6,N
1497913155.0,286047012.0,N
1497913155.9,286047012.0,N
1497913175.8,286047014.0,N
1497913195.6,286047011.8,N
